JJA1513 RKSI-RJCH

Flight info

Callsign JJA1513
Flight time 2h 1m
Altitude 37000
Route EGOBA2E EGOBA Y697 LANAT Y51 SAMON Y14 GOLDO Y19 MRE Y113 TAXIR PATRAS
Aircraft B738/M-SDE2E3FGHIRWXY/LB1

Departure

Time 2026-04-25 05:20
Airport Incheon International Airport (RKSI)

Arrival

Time 2026-04-25 07:22
Airport Hakodate Airport (RJCH)
Time Latitude Longitude Altitude Speed Heading
2026-04-25 05:03 37.45576 126.44635 30 ft 0 kts 323°
2026-04-25 05:10 37.45557 126.44652 31 ft 3 kts 323°
2026-04-25 05:10 37.45540 126.44668 31 ft 4 kts 332°
2026-04-25 05:11 37.45517 126.44676 30 ft 4 kts 20°
2026-04-25 05:11 37.45500 126.44658 31 ft 4 kts 54°
2026-04-25 05:11 37.45495 126.44648 30 ft 0 kts 54°
2026-04-25 05:15 37.45512 126.44678 30 ft 6 kts 54°
2026-04-25 05:15 37.45527 126.44740 31 ft 9 kts 102°
2026-04-25 05:15 37.45491 126.44813 31 ft 10 kts 84°
2026-04-25 05:15 37.45530 126.44882 31 ft 10 kts 55°
2026-04-25 05:16 37.45580 126.44971 31 ft 15 kts 54°
2026-04-25 05:16 37.45651 126.45096 31 ft 19 kts 54°
2026-04-25 05:16 37.45722 126.45223 31 ft 16 kts 54°
2026-04-25 05:16 37.45773 126.45337 30 ft 15 kts 101°
2026-04-25 05:17 37.45696 126.45423 31 ft 15 kts 145°
2026-04-25 05:17 37.45614 126.45495 31 ft 14 kts 145°
2026-04-25 05:17 37.45537 126.45564 30 ft 13 kts 144°
2026-04-25 05:17 37.45463 126.45631 31 ft 13 kts 144°
2026-04-25 05:18 37.45390 126.45693 29 ft 13 kts 146°
2026-04-25 05:18 37.45319 126.45757 30 ft 12 kts 144°
2026-04-25 05:18 37.45304 126.45848 31 ft 12 kts 61°
2026-04-25 05:18 37.45349 126.45932 31 ft 12 kts 54°
2026-04-25 05:19 37.45395 126.46014 30 ft 11 kts 54°
2026-04-25 05:19 37.45447 126.46056 30 ft 6 kts 346°
2026-04-25 05:19 37.45489 126.46027 29 ft 9 kts 325°
2026-04-25 05:19 37.45630 126.45901 29 ft 54 kts 324°
2026-04-25 05:20 37.46114 126.45472 31 ft 114 kts 324°
2026-04-25 05:20 37.46887 126.44775 84 ft 154 kts 321°
2026-04-25 05:20 37.47781 126.43976 602 ft 158 kts 324°
2026-04-25 05:20 37.48749 126.43180 1042 ft 174 kts 325°
2026-04-25 05:21 37.49809 126.42319 1532 ft 186 kts 324°
2026-04-25 05:21 37.50940 126.41396 1932 ft 207 kts 324°
2026-04-25 05:21 37.52214 126.40350 2154 ft 230 kts 324°
2026-04-25 05:21 37.53588 126.39224 2705 ft 238 kts 324°
2026-04-25 05:22 37.54984 126.38081 3415 ft 241 kts 323°
2026-04-25 05:22 37.56438 126.37042 4063 ft 248 kts 337°
2026-04-25 05:22 37.58122 126.36464 4769 ft 252 kts 343°
2026-04-25 05:22 37.59827 126.35902 5452 ft 254 kts 342°
2026-04-25 05:23 37.61552 126.35355 6155 ft 258 kts 351°
2026-04-25 05:23 37.63333 126.35647 6832 ft 263 kts 24°
2026-04-25 05:23 37.64790 126.37098 7259 ft 279 kts 56°
2026-04-25 05:23 37.65588 126.39361 7797 ft 287 kts 71°
2026-04-25 05:24 37.66242 126.41765 8507 ft 291 kts 71°
2026-04-25 05:24 37.66767 126.44233 9285 ft 293 kts 87°
2026-04-25 05:24 37.66497 126.46774 10052 ft 294 kts 109°
2026-04-25 05:24 37.65785 126.49254 10482 ft 311 kts 111°
2026-04-25 05:25 37.64995 126.51873 10635 ft 335 kts 112°
2026-04-25 05:25 37.64022 126.54619 10977 ft 348 kts 125°
2026-04-25 05:25 37.62360 126.56892 11416 ft 357 kts 139°
2026-04-25 05:25 37.60509 126.58979 12260 ft 356 kts 139°
2026-04-25 05:26 37.58655 126.61044 13076 ft 357 kts 140°
2026-04-25 05:26 37.56779 126.63143 13812 ft 362 kts 140°
2026-04-25 05:26 37.54918 126.65240 14492 ft 365 kts 139°
2026-04-25 05:26 37.53021 126.67390 15188 ft 369 kts 139°
2026-04-25 05:27 37.51100 126.69584 15862 ft 374 kts 139°
2026-04-25 05:27 37.49161 126.71802 16560 ft 378 kts 139°
2026-04-25 05:27 37.47201 126.74038 17270 ft 381 kts 139°
2026-04-25 05:27 37.45219 126.76296 17925 ft 386 kts 140°
2026-04-25 05:28 37.43235 126.78620 18539 ft 393 kts 134°
2026-04-25 05:28 37.41779 126.81547 19061 ft 398 kts 112°
2026-04-25 05:28 37.41214 126.84924 19113 ft 405 kts 92°
2026-04-25 05:28 37.41256 126.88457 19159 ft 405 kts 89°
2026-04-25 05:29 37.41325 126.92036 19541 ft 410 kts 89°
2026-04-25 05:29 37.41624 126.95616 20210 ft 411 kts 80°
2026-04-25 05:29 37.42207 126.99141 20873 ft 413 kts 78°
2026-04-25 05:29 37.42849 127.02678 21413 ft 417 kts 78°
2026-04-25 05:30 37.43497 127.06259 21921 ft 421 kts 78°
2026-04-25 05:30 37.44128 127.09866 22526 ft 423 kts 79°
2026-04-25 05:30 37.44743 127.13512 22974 ft 429 kts 79°
2026-04-25 05:30 37.45352 127.17211 23465 ft 433 kts 79°
2026-04-25 05:31 37.45951 127.20889 23975 ft 435 kts 79°
2026-04-25 05:31 37.46555 127.24622 24427 ft 437 kts 79°
2026-04-25 05:31 37.47165 127.28385 24859 ft 439 kts 79°
2026-04-25 05:31 37.47775 127.32164 25290 ft 442 kts 79°
2026-04-25 05:32 37.48357 127.35978 25695 ft 444 kts 84°
2026-04-25 05:32 37.48271 127.39841 26064 ft 443 kts 104°
2026-04-25 05:32 37.47401 127.43551 26528 ft 442 kts 110°
2026-04-25 05:32 37.46430 127.47232 26948 ft 444 kts 110°
2026-04-25 05:33 37.45443 127.50935 27280 ft 448 kts 110°
2026-04-25 05:33 37.44452 127.54671 27623 ft 451 kts 110°
2026-04-25 05:33 37.43465 127.58426 28015 ft 453 kts 110°
2026-04-25 05:33 37.42481 127.62209 28384 ft 455 kts 110°
2026-04-25 05:34 37.41511 127.65953 28741 ft 457 kts 110°
2026-04-25 05:34 37.40527 127.69770 29097 ft 460 kts 110°
2026-04-25 05:34 37.39537 127.73609 29409 ft 462 kts 110°
2026-04-25 05:34 37.38542 127.77466 29708 ft 465 kts 110°
2026-04-25 05:35 37.37541 127.81342 30044 ft 467 kts 110°
2026-04-25 05:35 37.36536 127.85231 30337 ft 468 kts 110°
2026-04-25 05:35 37.35865 127.87818 30521 ft 469 kts 110°
2026-04-25 05:35 37.34507 127.93054 30949 ft 470 kts 110°
2026-04-25 05:36 37.33834 127.95641 31164 ft 470 kts 110°
2026-04-25 05:36 37.32815 127.99554 31422 ft 472 kts 110°
2026-04-25 05:36 37.31790 128.03482 31679 ft 474 kts 110°
2026-04-25 05:36 37.30433 128.08690 32119 ft 473 kts 111°
2026-04-25 05:37 37.29738 128.11345 32354 ft 473 kts 111°
2026-04-25 05:37 37.28711 128.15268 32615 ft 474 kts 111°
2026-04-25 05:37 37.27675 128.19215 32871 ft 475 kts 111°
2026-04-25 05:37 37.26654 128.23104 33144 ft 476 kts 111°
2026-04-25 05:38 37.25613 128.27058 33393 ft 477 kts 111°
2026-04-25 05:38 37.24570 128.31015 33697 ft 477 kts 111°
2026-04-25 05:38 37.23527 128.34968 34016 ft 477 kts 111°
2026-04-25 05:38 37.22481 128.38926 34253 ft 478 kts 111°
2026-04-25 05:39 37.21432 128.42887 34479 ft 479 kts 111°
2026-04-25 05:39 37.20380 128.46856 34699 ft 480 kts 111°
2026-04-25 05:39 37.19331 128.50834 34891 ft 481 kts 111°
2026-04-25 05:39 37.18274 128.54811 35152 ft 481 kts 111°
2026-04-25 05:40 37.17209 128.58796 35337 ft 483 kts 112°
2026-04-25 05:40 37.16141 128.62789 35554 ft 483 kts 112°
2026-04-25 05:40 37.15070 128.66786 35760 ft 483 kts 112°
2026-04-25 05:40 37.13993 128.70803 35863 ft 487 kts 112°
2026-04-25 05:41 37.12911 128.74834 36067 ft 488 kts 112°
2026-04-25 05:41 37.11827 128.78864 36329 ft 488 kts 113°
2026-04-25 05:41 37.10746 128.82885 36589 ft 487 kts 113°
2026-04-25 05:41 37.09662 128.86913 36791 ft 488 kts 113°
2026-04-25 05:42 37.08590 128.90887 36953 ft 489 kts 113°
2026-04-25 05:42 37.07497 128.94928 37081 ft 488 kts 113°
2026-04-25 05:42 37.06411 128.98943 37063 ft 487 kts 113°
2026-04-25 05:43 37.04239 129.06983 37097 ft 489 kts 113°
2026-04-25 05:43 37.02035 129.15071 37091 ft 493 kts 114°
2026-04-25 05:44 36.99819 129.23216 37128 ft 494 kts 114°
2026-04-25 05:44 36.97574 129.31374 37130 ft 497 kts 114°
2026-04-25 05:45 36.95322 129.39567 37126 ft 499 kts 114°
2026-04-25 05:45 36.93081 129.47740 37112 ft 493 kts 114°
2026-04-25 05:46 36.90859 129.55800 37136 ft 489 kts 114°
2026-04-25 05:46 36.88643 129.63783 37130 ft 488 kts 114°
2026-04-25 05:47 36.86412 129.71804 37137 ft 488 kts 114°
2026-04-25 05:47 36.84174 129.79826 37141 ft 490 kts 114°
2026-04-25 05:48 36.81928 129.87863 37143 ft 491 kts 115°
2026-04-25 05:48 36.79665 129.95940 37154 ft 494 kts 115°
2026-04-25 05:49 36.77384 130.04045 37137 ft 496 kts 115°
2026-04-25 05:49 36.75104 130.12124 37158 ft 498 kts 115°
2026-04-25 05:50 36.72792 130.20295 37157 ft 500 kts 115°
2026-04-25 05:50 36.70470 130.28476 37141 ft 501 kts 115°
2026-04-25 05:51 36.68135 130.36678 37160 ft 502 kts 115°
2026-04-25 05:51 36.65794 130.44879 37156 ft 503 kts 115°
2026-04-25 05:52 36.63447 130.53080 37151 ft 503 kts 116°
2026-04-25 05:52 36.61107 130.61225 37161 ft 503 kts 116°
2026-04-25 05:53 36.58745 130.69413 37162 ft 503 kts 116°
2026-04-25 05:53 36.56374 130.77612 37164 ft 502 kts 116°
2026-04-25 05:54 36.54007 130.85784 37155 ft 502 kts 116°
2026-04-25 05:54 36.50445 130.98031 37155 ft 502 kts 116°
2026-04-25 05:55 36.48070 131.06181 37159 ft 501 kts 116°
2026-04-25 05:55 36.45692 131.14314 37134 ft 501 kts 116°
2026-04-25 05:56 36.43321 131.22386 37157 ft 500 kts 116°
2026-04-25 05:56 36.40931 131.30501 37160 ft 500 kts 116°
2026-04-25 05:57 36.38533 131.38621 37145 ft 501 kts 117°
2026-04-25 05:57 36.37006 131.47158 37149 ft 516 kts 97°
2026-04-25 05:58 36.36764 131.56078 37160 ft 518 kts 95°
2026-04-25 05:58 36.36584 131.65036 37155 ft 520 kts 96°
2026-04-25 05:59 36.36341 131.74007 37189 ft 521 kts 96°
2026-04-25 05:59 36.36052 131.82993 37150 ft 522 kts 97°
2026-04-25 06:00 36.35751 131.91941 37159 ft 523 kts 97°
2026-04-25 06:00 36.35443 132.00960 37134 ft 523 kts 97°
2026-04-25 06:01 36.35132 132.09982 37159 ft 524 kts 97°
2026-04-25 06:01 36.34814 132.19014 37158 ft 524 kts 97°
2026-04-25 06:02 36.34490 132.28067 37165 ft 525 kts 97°
2026-04-25 06:02 36.34156 132.37115 37159 ft 525 kts 97°
2026-04-25 06:03 36.33816 132.46172 37144 ft 526 kts 98°
2026-04-25 06:03 36.33472 132.55177 37163 ft 526 kts 98°
2026-04-25 06:04 36.33120 132.64244 37131 ft 526 kts 98°
2026-04-25 06:04 36.32767 132.73321 37154 ft 527 kts 98°
2026-04-25 06:05 36.32400 132.82409 37168 ft 528 kts 98°
2026-04-25 06:05 36.32022 132.91529 37164 ft 530 kts 98°
2026-04-25 06:06 36.31639 133.00609 37159 ft 531 kts 98°
2026-04-25 06:06 36.31247 133.09779 37164 ft 532 kts 98°
2026-04-25 06:07 36.30847 133.18952 37161 ft 533 kts 98°
2026-04-25 06:07 36.30443 133.28134 37171 ft 533 kts 98°
2026-04-25 06:08 36.30023 133.37322 37159 ft 533 kts 99°
2026-04-25 06:08 36.29602 133.46435 37171 ft 533 kts 99°
2026-04-25 06:09 36.29177 133.55607 37166 ft 533 kts 99°
2026-04-25 06:09 36.28745 133.64786 37141 ft 533 kts 99°
2026-04-25 06:10 36.28304 133.73963 37168 ft 533 kts 100°
2026-04-25 06:10 36.27845 133.83133 37176 ft 533 kts 100°
2026-04-25 06:11 36.27366 133.92305 37171 ft 534 kts 100°
2026-04-25 06:11 36.26884 134.01508 37138 ft 535 kts 101°
2026-04-25 06:12 36.26400 134.10664 37161 ft 537 kts 100°
2026-04-25 06:12 36.25915 134.19906 37177 ft 538 kts 100°
2026-04-25 06:13 36.25433 134.29176 37176 ft 540 kts 100°
2026-04-25 06:14 36.24715 134.43134 37168 ft 544 kts 97°
2026-04-25 06:14 36.24967 134.47850 37175 ft 553 kts 84°
2026-04-25 06:14 36.25851 134.52446 37171 ft 557 kts 73°
2026-04-25 06:14 36.27327 134.56889 37165 ft 558 kts 60°
2026-04-25 06:15 36.29329 134.61071 37196 ft 556 kts 56°
2026-04-25 06:15 36.33448 134.69134 37172 ft 557 kts 55°
2026-04-25 06:16 36.37571 134.77283 37173 ft 557 kts 56°
2026-04-25 06:16 36.41620 134.85488 37172 ft 557 kts 57°
2026-04-25 06:17 36.45637 134.93721 37177 ft 557 kts 57°
2026-04-25 06:17 36.49640 135.01954 37180 ft 556 kts 57°
2026-04-25 06:18 36.53640 135.10180 37205 ft 555 kts 57°
2026-04-25 06:18 36.57633 135.18397 37177 ft 555 kts 57°
2026-04-25 06:19 36.61594 135.26576 37177 ft 554 kts 57°
2026-04-25 06:19 36.65560 135.34787 37186 ft 553 kts 57°
2026-04-25 06:20 36.69513 135.42991 37192 ft 552 kts 57°
2026-04-25 06:20 36.73458 135.51197 37174 ft 551 kts 57°
2026-04-25 06:21 36.77395 135.59404 37193 ft 551 kts 57°
2026-04-25 06:21 36.81324 135.67617 37191 ft 551 kts 57°
2026-04-25 06:22 36.85248 135.75843 37192 ft 552 kts 57°
2026-04-25 06:22 36.89172 135.84088 37189 ft 552 kts 57°
2026-04-25 06:23 36.93070 135.92296 37184 ft 552 kts 57°
2026-04-25 06:23 36.96985 136.00560 37185 ft 552 kts 57°
2026-04-25 06:24 37.00238 136.07441 37180 ft 553 kts 57°
2026-04-25 06:24 37.04147 136.15738 37188 ft 553 kts 57°
2026-04-25 06:25 37.08055 136.24050 37182 ft 553 kts 57°
2026-04-25 06:25 37.12589 136.33716 37184 ft 553 kts 57°
2026-04-25 06:26 37.15824 136.40632 37190 ft 553 kts 57°
2026-04-25 06:26 37.19716 136.48974 37186 ft 554 kts 57°
2026-04-25 06:27 37.23602 136.57325 37190 ft 554 kts 57°
2026-04-25 06:27 37.27483 136.65687 37185 ft 554 kts 57°
2026-04-25 06:28 37.31332 136.74002 37196 ft 553 kts 57°
2026-04-25 06:28 37.35212 136.82422 37172 ft 554 kts 57°
2026-04-25 06:29 37.39043 136.90731 37157 ft 552 kts 57°
2026-04-25 06:29 37.42886 136.99083 37164 ft 552 kts 57°
2026-04-25 06:30 37.46717 137.07443 37169 ft 551 kts 57°
2026-04-25 06:30 37.50538 137.15807 37193 ft 551 kts 57°
2026-04-25 06:31 37.54358 137.24181 37191 ft 551 kts 57°
2026-04-25 06:31 37.58169 137.32557 37191 ft 550 kts 57°
2026-04-25 06:32 37.61968 137.40931 37207 ft 550 kts 57°
2026-04-25 06:32 37.65760 137.49311 37186 ft 550 kts 57°
2026-04-25 06:33 37.69522 137.57650 37207 ft 549 kts 57°
2026-04-25 06:33 37.73302 137.66048 37184 ft 549 kts 57°
2026-04-25 06:34 37.77069 137.74439 37188 ft 549 kts 57°
2026-04-25 06:34 37.80832 137.82843 37192 ft 549 kts 57°
2026-04-25 06:35 37.84589 137.91258 37186 ft 548 kts 57°
2026-04-25 06:35 37.88334 137.99666 37188 ft 548 kts 57°
2026-04-25 06:36 37.92076 138.08087 37187 ft 548 kts 57°
2026-04-25 06:36 37.95810 138.16515 37188 ft 549 kts 57°
2026-04-25 06:37 37.99540 138.24963 37209 ft 549 kts 57°
2026-04-25 06:37 38.03242 138.33364 37195 ft 549 kts 57°
2026-04-25 06:38 38.07737 138.41046 37196 ft 536 kts 38°
2026-04-25 06:38 38.13468 138.46868 37202 ft 522 kts 23°
2026-04-25 06:39 38.19614 138.51775 37187 ft 521 kts 23°
2026-04-25 06:39 38.25745 138.56711 37199 ft 521 kts 24°
2026-04-25 06:40 38.31807 138.61676 37188 ft 519 kts 24°
2026-04-25 06:40 38.37868 138.66677 37193 ft 517 kts 24°
2026-04-25 06:41 38.43899 138.71668 37202 ft 516 kts 24°
2026-04-25 06:41 38.49911 138.76645 37199 ft 514 kts 24°
2026-04-25 06:42 38.55869 138.81585 37214 ft 512 kts 25°
2026-04-25 06:42 38.61839 138.86547 37198 ft 510 kts 25°
2026-04-25 06:43 38.67779 138.91493 37195 ft 508 kts 25°
2026-04-25 06:43 38.73701 138.96429 37205 ft 507 kts 24°
2026-04-25 06:44 38.79605 139.01357 37205 ft 506 kts 25°
2026-04-25 06:44 38.85495 139.06294 37206 ft 506 kts 25°
2026-04-25 06:45 38.91379 139.11235 37212 ft 505 kts 25°
2026-04-25 06:45 38.97254 139.16178 37208 ft 504 kts 25°
2026-04-25 06:46 39.03130 139.21129 37227 ft 504 kts 25°
2026-04-25 06:46 39.08958 139.26049 37220 ft 504 kts 25°
2026-04-25 06:47 39.14829 139.31012 37212 ft 504 kts 25°
2026-04-25 06:47 39.20701 139.35983 37221 ft 504 kts 25°
2026-04-25 06:48 39.26568 139.40963 37207 ft 504 kts 25°
2026-04-25 06:48 39.32422 139.45946 37212 ft 504 kts 25°
2026-04-25 06:49 39.38274 139.50938 37206 ft 504 kts 25°
2026-04-25 06:49 39.44119 139.55935 37212 ft 503 kts 25°
2026-04-25 06:50 39.49962 139.60939 37230 ft 503 kts 25°
2026-04-25 06:50 39.55764 139.65919 37213 ft 503 kts 25°
2026-04-25 06:51 39.61602 139.70940 37213 ft 503 kts 25°
2026-04-25 06:51 39.67430 139.75963 37224 ft 503 kts 25°
2026-04-25 06:52 39.73258 139.80996 37219 ft 503 kts 25°
2026-04-25 06:52 39.79088 139.86043 37205 ft 502 kts 25°
2026-04-25 06:53 39.84861 139.91067 37217 ft 501 kts 26°
2026-04-25 06:53 39.90653 139.96157 37204 ft 501 kts 26°
2026-04-25 06:53 39.93553 139.98710 36739 ft 505 kts 26°
2026-04-25 06:54 39.96464 140.01278 36214 ft 502 kts 26°
2026-04-25 06:54 39.99353 140.03833 35619 ft 502 kts 27°
2026-04-25 06:54 40.02241 140.06386 34998 ft 501 kts 27°
2026-04-25 06:54 40.05122 140.08938 34353 ft 501 kts 27°
2026-04-25 06:55 40.08003 140.11491 33583 ft 500 kts 27°
2026-04-25 06:55 40.10860 140.14022 33111 ft 493 kts 27°
2026-04-25 06:55 40.13682 140.16525 32616 ft 487 kts 27°
2026-04-25 06:55 40.16466 140.18999 32135 ft 481 kts 27°
2026-04-25 06:56 40.19181 140.21412 31690 ft 475 kts 27°
2026-04-25 06:56 40.21904 140.23833 31207 ft 470 kts 27°
2026-04-25 06:56 40.24595 140.26227 30769 ft 464 kts 28°
2026-04-25 06:56 40.27252 140.28594 30323 ft 459 kts 28°
2026-04-25 06:57 40.29879 140.30938 29834 ft 454 kts 28°
2026-04-25 06:57 40.32472 140.33249 29372 ft 448 kts 28°
2026-04-25 06:57 40.35021 140.35542 28916 ft 441 kts 29°
2026-04-25 06:57 40.37524 140.37807 28483 ft 434 kts 28°
2026-04-25 06:58 40.40011 140.40012 28066 ft 427 kts 28°
2026-04-25 06:58 40.42452 140.42201 27611 ft 423 kts 29°
2026-04-25 06:58 40.44865 140.44368 27189 ft 417 kts 28°
2026-04-25 06:58 40.47254 140.46498 26761 ft 412 kts 28°
2026-04-25 06:59 40.49605 140.48620 26345 ft 408 kts 28°
2026-04-25 06:59 40.51937 140.50714 25935 ft 403 kts 28°
2026-04-25 06:59 40.54250 140.52778 25507 ft 399 kts 28°
2026-04-25 06:59 40.56539 140.54825 25094 ft 395 kts 28°
2026-04-25 07:00 40.58799 140.56854 24677 ft 392 kts 29°
2026-04-25 07:00 40.61039 140.58871 24283 ft 388 kts 29°
2026-04-25 07:00 40.63230 140.60849 23891 ft 385 kts 29°
2026-04-25 07:00 40.65429 140.62835 23407 ft 382 kts 29°
2026-04-25 07:01 40.67609 140.64806 23004 ft 378 kts 29°
2026-04-25 07:01 40.69771 140.66762 22583 ft 374 kts 29°
2026-04-25 07:01 40.71917 140.68660 22176 ft 368 kts 25°
2026-04-25 07:01 40.74206 140.70052 21787 ft 358 kts 14°
2026-04-25 07:02 40.76578 140.70869 21520 ft 348 kts
2026-04-25 07:02 40.78996 140.71215 21311 ft 352 kts
2026-04-25 07:02 40.81440 140.71487 20966 ft 351 kts 360°
2026-04-25 07:02 40.83862 140.71751 20558 ft 348 kts 360°
2026-04-25 07:03 40.86273 140.72022 20146 ft 346 kts
2026-04-25 07:03 40.88668 140.72300 19742 ft 344 kts
2026-04-25 07:03 40.91049 140.72583 19335 ft 343 kts
2026-04-25 07:03 40.93417 140.72867 18945 ft 341 kts
2026-04-25 07:04 40.95777 140.73153 18540 ft 340 kts
2026-04-25 07:04 40.98132 140.73439 18085 ft 339 kts
2026-04-25 07:04 41.00448 140.73721 17656 ft 337 kts
2026-04-25 07:04 41.02796 140.74003 17094 ft 340 kts
2026-04-25 07:05 41.05146 140.74286 16670 ft 337 kts
2026-04-25 07:05 41.07478 140.74567 16254 ft 335 kts
2026-04-25 07:05 41.09799 140.74847 15850 ft 333 kts
2026-04-25 07:05 41.12101 140.75126 15454 ft 331 kts
2026-04-25 07:06 41.14357 140.75404 15065 ft 329 kts
2026-04-25 07:06 41.16627 140.75686 14679 ft 327 kts
2026-04-25 07:06 41.18877 140.75966 14390 ft 322 kts
2026-04-25 07:06 41.21101 140.76242 14015 ft 320 kts
2026-04-25 07:07 41.23314 140.76513 13614 ft 318 kts
2026-04-25 07:07 41.25526 140.76783 13059 ft 321 kts
2026-04-25 07:07 41.27750 140.77057 12640 ft 319 kts
2026-04-25 07:07 41.29958 140.77331 12245 ft 318 kts
2026-04-25 07:08 41.32153 140.77604 11848 ft 316 kts
2026-04-25 07:08 41.34335 140.77874 11466 ft 314 kts
2026-04-25 07:08 41.36502 140.78143 11106 ft 312 kts
2026-04-25 07:08 41.38663 140.78411 10728 ft 310 kts
2026-04-25 07:09 41.40798 140.78678 10502 ft 304 kts
2026-04-25 07:09 41.42872 140.78919 10358 ft 293 kts 356°
2026-04-25 07:09 41.44790 140.78424 10219 ft 274 kts 332°
2026-04-25 07:09 41.46415 140.77235 10116 ft 261 kts 323°
2026-04-25 07:10 41.47873 140.75917 9943 ft 254 kts 321°
2026-04-25 07:10 41.49317 140.74561 9661 ft 252 kts 321°
2026-04-25 07:10 41.50745 140.73218 9378 ft 251 kts 321°
2026-04-25 07:10 41.52168 140.71886 9103 ft 249 kts 321°
2026-04-25 07:11 41.53586 140.70568 8831 ft 247 kts 321°
2026-04-25 07:11 41.54999 140.69258 8560 ft 246 kts 321°
2026-04-25 07:11 41.55930 140.68397 8385 ft 245 kts 321°
2026-04-25 07:11 41.57803 140.66670 8021 ft 244 kts 321°
2026-04-25 07:12 41.58727 140.65819 7852 ft 243 kts 321°
2026-04-25 07:12 41.61504 140.63262 7321 ft 242 kts 321°
2026-04-25 07:12 41.62885 140.61991 7080 ft 241 kts 321°
2026-04-25 07:13 41.64267 140.60719 6798 ft 241 kts 321°
2026-04-25 07:13 41.65647 140.59447 6525 ft 241 kts 321°
2026-04-25 07:13 41.67029 140.58174 6235 ft 241 kts 322°
2026-04-25 07:13 41.68412 140.56900 5959 ft 241 kts 322°
2026-04-25 07:14 41.69791 140.55629 5687 ft 240 kts 322°
2026-04-25 07:14 41.71162 140.54365 5440 ft 239 kts 322°
2026-04-25 07:14 41.72511 140.53122 5329 ft 232 kts 322°
2026-04-25 07:14 41.73810 140.51925 5201 ft 225 kts 322°
2026-04-25 07:15 41.75076 140.50759 5120 ft 217 kts 322°
2026-04-25 07:15 41.76301 140.49627 5027 ft 211 kts 321°
2026-04-25 07:15 41.77613 140.48720 4916 ft 219 kts 346°
2026-04-25 07:15 41.79134 140.48958 4844 ft 222 kts 15°
2026-04-25 07:16 41.80594 140.49586 4609 ft 217 kts 13°
2026-04-25 07:16 41.82039 140.50187 4423 ft 224 kts 15°
2026-04-25 07:16 41.83418 140.51154 4200 ft 227 kts 44°
2026-04-25 07:16 41.84067 140.53007 4050 ft 220 kts 89°
2026-04-25 07:17 41.83731 140.54956 3810 ft 212 kts 114°
2026-04-25 07:17 41.83234 140.56760 3577 ft 206 kts 111°
2026-04-25 07:17 41.82773 140.58577 3371 ft 201 kts 110°
2026-04-25 07:17 41.82338 140.60297 3184 ft 196 kts 111°
2026-04-25 07:18 41.81917 140.62031 3016 ft 198 kts 110°
2026-04-25 07:18 41.81498 140.63803 2734 ft 199 kts 109°
2026-04-25 07:18 41.81081 140.65522 2463 ft 186 kts 109°
2026-04-25 07:18 41.80693 140.67112 2204 ft 174 kts 110°
2026-04-25 07:19 41.80331 140.68591 2018 ft 158 kts 110°
2026-04-25 07:19 41.80001 140.69943 1788 ft 149 kts 110°
2026-04-25 07:19 41.79682 140.71248 1579 ft 149 kts 110°
2026-04-25 07:19 41.79359 140.72570 1363 ft 147 kts 109°
2026-04-25 07:20 41.79050 140.73843 1144 ft 141 kts 110°
2026-04-25 07:20 41.78749 140.75076 964 ft 138 kts 110°
2026-04-25 07:20 41.78456 140.76283 777 ft 134 kts 110°
2026-04-25 07:20 41.78170 140.77467 616 ft 133 kts 110°
2026-04-25 07:21 41.77884 140.78647 436 ft 134 kts 110°
2026-04-25 07:21 41.77597 140.79828 258 ft 130 kts 109°
2026-04-25 07:21 41.77319 140.80971 108 ft 125 kts 110°
2026-04-25 07:21 41.77088 140.81916 122 ft 85 kts 108°
2026-04-25 07:22 41.76951 140.82475 138 ft 43 kts 108°
2026-04-25 07:22 41.76903 140.82700 141 ft 12 kts 85°
2026-04-25 07:22 41.76958 140.82781 139 ft 13 kts 22°
2026-04-25 07:22 41.77043 140.82773 137 ft 13 kts 316°
2026-04-25 07:23 41.77076 140.82660 137 ft 13 kts 281°
2026-04-25 07:23 41.77106 140.82545 133 ft 14 kts 289°
2026-04-25 07:23 41.77139 140.82409 130 ft 16 kts 288°
2026-04-25 07:23 41.77172 140.82272 126 ft 15 kts 288°
2026-04-25 07:24 41.77207 140.82126 122 ft 18 kts 289°
2026-04-25 07:24 41.77246 140.81970 123 ft 17 kts 288°
2026-04-25 07:24 41.77283 140.81819 123 ft 16 kts 288°
2026-04-25 07:24 41.77313 140.81721 121 ft 9 kts 321°
2026-04-25 07:25 41.77372 140.81728 119 ft 10 kts 17°
2026-04-25 07:25 41.77427 140.81751 118 ft 2 kts 17°
2026-04-25 07:25 41.77443 140.81758 117 ft 1 kts 17°
2026-04-25 07:25 41.77444 140.81758 117 ft 0 kts 17°